Tulsa Jones, OK

9:32 AM CDT on June 28, 2017 (GMT -0500)
Jones Jr.

Weather History for KRVS - November, 2011

Change the Weather History Date:

Wednesday, November 23, 2011

  Actual Average (KTUL) Record (KTUL)
Temperature  
Mean Temperature 47 °F -  
Max Temperature 64 °F 58 °F 78 °F (1966)
Min Temperature 30 °F 36 °F 17 °F (1970)
Degree Days  
Heating Degree Days 18    
Moisture  
Dew Point 34 °F    
Average Humidity 87    
Maximum Humidity 100    
Minimum Humidity 46    
Precipitation  
Precipitation 0.00 in - - ()
Sea Level Pressure  
Sea Level Pressure 30.26 in    
Wind  
Wind Speed 0 mph (South)    
Max Wind Speed 7 mph    
Max Gust Speed -    
Visibility 4 miles    
Events Fog    
Averages and records for this station are not official NWS values.
T = Trace of Precipitation, MM = Missing Value Source: NWS Daily Summary

Daily Weather History Graph

Daily Weather History Graph

Search for Another Location

Airport or City:

Trip Planner

Search our weather history database for the weather conditions in past years. The results will help you decide how hot, cold, wet, or windy it might be!

Date:

Astronomy

Nov. 23, 2011 Rise Set
Actual Time 7:08 AM CST 5:12 PM CST
Civil Twilight 6:40 AM CST 5:39 PM CST
Nautical Twilight 6:09 AM CST 6:11 PM CST
Astronomical Twilight 5:38 AM CST 6:41 PM CST
Moon 5:15 AM CST (11/23) 3:53 PM CST (11/23)
Length of Visible Light 10h 59m
Length of Day
10h 03m
Waning Crescent, 3% of the Moon is Illuminated
Nov 23
Waning Crescent
Nov 25
New
Dec 2
First Quarter
Dec 10
Full
Dec 17
Last Quarter

Hourly Weather History & Observations

Time (CST) Temp. Windchill Dew Point Humidity Pressure Visibility Wind Dir Wind Speed Gust Speed Precip Events Conditions
12:12 AM 35.6 °F - 32.0 °F 87% 30.23 in 0.8 mi Calm Calm - N/A   Clear
12:20 AM 33.8 °F - 32.0 °F 93% 30.23 in 2.0 mi Calm Calm - N/A   Clear
12:34 AM 33.8 °F - 32.0 °F 93% 30.23 in 1.2 mi Calm Calm - N/A   Partly Cloudy
12:38 AM 33.8 °F - 32.0 °F 93% 30.23 in 0.8 mi Calm Calm - N/A   Mist
12:53 AM 33.1 °F - 32.0 °F 96% 30.26 in 1.0 mi Calm Calm - N/A   Mist
1:02 AM 33.8 °F - 30.2 °F 87% 30.23 in 0.5 mi Calm Calm - N/A Fog Fog
1:09 AM 33.8 °F - 30.2 °F 87% 30.23 in 0.8 mi Calm Calm - N/A   Clear
1:18 AM 33.8 °F - 30.2 °F 87% 30.23 in 1.2 mi Calm Calm - N/A   Clear
1:44 AM 33.8 °F - 30.2 °F 87% 30.23 in 1.0 mi Calm Calm - N/A   Mist
1:51 AM 33.8 °F - 30.2 °F 87% 30.23 in 0.5 mi Calm Calm - N/A Fog Fog
1:53 AM 32.0 °F - 30.9 °F 96% 30.26 in 0.5 mi Calm Calm - N/A Fog Fog
2:32 AM 32.0 °F - 30.2 °F 93% 30.24 in 0.2 mi Calm Calm - N/A Fog Fog
2:46 AM 30.2 °F - 30.2 °F 100% 30.24 in 0.5 mi Calm Calm - N/A Fog Light Freezing Fog
3:07 AM 30.2 °F 26.7 °F 30.2 °F 100% 30.24 in 1.0 mi SSW 3.5 mph - N/A   Mist
3:20 AM 30.2 °F - 28.4 °F 93% 30.24 in 2.5 mi Calm Calm - N/A   Scattered Clouds
3:31 AM 30.2 °F - 28.4 °F 93% 30.24 in 3.0 mi Calm Calm - N/A   Mostly Cloudy
3:34 AM 30.2 °F - 28.4 °F 93% 30.24 in 1.5 mi Calm Calm - N/A   Mostly Cloudy
3:53 AM 30.0 °F - 28.9 °F 96% 30.27 in 0.8 mi Calm Calm - N/A   Overcast
4:00 AM 30.2 °F - 28.4 °F 93% 30.24 in 1.0 mi Calm Calm - N/A   Overcast
4:30 AM 30.2 °F - 28.4 °F 93% 30.24 in 3.0 mi Calm Calm - N/A   Overcast
5:04 AM 32.0 °F - 30.2 °F 93% 30.24 in 1.5 mi Calm Calm - N/A   Overcast
5:08 AM 32.0 °F - 30.2 °F 93% 30.24 in 0.5 mi Calm Calm - N/A Fog Fog
5:46 AM 32.0 °F - 30.2 °F 93% 30.25 in 0.2 mi Calm Calm - N/A Fog Fog
5:53 AM 32.0 °F - 30.9 °F 96% 30.28 in 0.2 mi Calm Calm - N/A Fog Fog
6:53 AM 32.0 °F - 30.9 °F 96% 30.31 in 0.2 mi Calm Calm - N/A Fog Fog
7:20 AM 32.0 °F - 30.2 °F 93% 30.28 in 0.2 mi Calm Calm - N/A Fog Fog
7:53 AM 32.0 °F - 30.9 °F 96% 30.32 in 0.2 mi Calm Calm - N/A Fog Fog
8:29 AM 33.8 °F - 32.0 °F 93% 30.30 in 0.2 mi Calm Calm - N/A Fog Fog
8:53 AM 34.0 °F - 33.1 °F 96% 30.33 in 0.5 mi Calm Calm - N/A Fog Fog
9:05 AM 35.6 °F - 33.8 °F 93% 30.31 in 0.2 mi Calm Calm - N/A Fog Fog
9:23 AM 37.4 °F - 37.4 °F 100% 30.31 in 1.0 mi Calm Calm - N/A   Overcast
9:32 AM 39.2 °F - 37.4 °F 93% 30.31 in 3.0 mi Calm Calm - N/A   Overcast
9:48 AM 39.2 °F - 37.4 °F 93% 30.31 in 7.0 mi Calm Calm - N/A   Scattered Clouds
9:53 AM 41.0 °F - 37.9 °F 89% 30.33 in 8.0 mi Calm Calm - N/A   Partly Cloudy
10:53 AM 48.9 °F - 42.1 °F 77% 30.32 in 10.0 mi Calm Calm - N/A   Clear
11:53 AM 55.0 °F - 44.1 °F 67% 30.30 in 10.0 mi SSW 3.5 mph - N/A   Clear
1:53 PM 62.1 °F - 44.1 °F 52% 30.25 in 10.0 mi South 3.5 mph - N/A   Clear
2:53 PM 64.0 °F - 43.0 °F 46% 30.23 in 10.0 mi South 4.6 mph - N/A   Clear
3:53 PM 64.0 °F - 43.0 °F 46% 30.23 in 10.0 mi SE 6.9 mph - N/A   Clear
4:53 PM 62.1 °F - 42.1 °F 48% 30.23 in 10.0 mi South 4.6 mph - N/A   Clear
5:53 PM 51.1 °F - 43.0 °F 74% 30.25 in 10.0 mi Calm Calm - N/A   Clear
6:53 PM 46.9 °F - 42.1 °F 83% 30.25 in 10.0 mi Calm Calm - N/A   Clear
7:53 PM 46.9 °F - 41.0 °F 80% 30.27 in 10.0 mi Calm Calm - N/A   Clear
9:53 PM 42.1 °F - 37.9 °F 85% 30.28 in 10.0 mi Calm Calm - N/A   Clear
10:53 PM 41.0 °F - 39.0 °F 93% 30.28 in 10.0 mi Calm Calm - N/A   Clear
11:53 PM 39.9 °F - 37.0 °F 89% 30.27 in 6.0 mi Calm Calm - N/A   Clear